Time,TemperatureF,DewpointF,PressureIn,WindDirection,WindDirectionDegrees,WindSpeedMPH,WindSpeedGustMPH,Humidity,HourlyPrecipIn,Conditions,Clouds,dailyrainin,SoftwareType,DateUTC
2013-06-15 00:01:00,63.4,59.8,29.99,North,5,0.0,0.0,88,0.00,,,0.00,Wunderground v.1.15,2013-06-15 04:01:00,
2013-06-15 00:11:00,63.0,59.7,29.99,North,5,0.0,0.0,89,0.00,,,0.00,Wunderground v.1.15,2013-06-15 04:11:00,
2013-06-15 00:21:00,63.1,59.5,29.99,North,5,0.0,0.0,88,0.00,,,0.00,Wunderground v.1.15,2013-06-15 04:21:00,
2013-06-15 00:31:00,62.7,59.4,29.99,North,5,0.0,0.0,89,0.00,,,0.00,Wunderground v.1.15,2013-06-15 04:31:00,
2013-06-15 00:41:00,62.8,59.5,30.00,North,5,0.0,0.0,89,0.00,,,0.00,Wunderground v.1.15,2013-06-15 04:41:00,
2013-06-15 00:51:00,62.7,59.4,30.00,North,5,0.0,0.0,89,0.00,,,0.00,Wunderground v.1.15,2013-06-15 04:51:00,
2013-06-15 01:01:00,62.7,59.7,30.00,North,5,0.0,0.0,90,0.00,,,0.00,Wunderground v.1.15,2013-06-15 05:01:00,
2013-06-15 01:11:00,62.5,59.5,30.00,North,5,0.0,0.0,90,0.00,,,0.00,Wunderground v.1.15,2013-06-15 05:11:00,
2013-06-15 01:21:00,62.3,59.3,30.01,North,5,0.0,0.0,90,0.00,,,0.00,Wunderground v.1.15,2013-06-15 05:21:00,
2013-06-15 01:31:00,61.4,58.7,30.01,North,5,0.0,0.0,91,0.00,,,0.00,Wunderground v.1.15,2013-06-15 05:31:00,
2013-06-15 01:41:00,61.3,59.0,30.01,North,5,0.0,0.0,92,0.00,,,0.00,Wunderground v.1.15,2013-06-15 05:41:00,
2013-06-15 01:51:00,61.8,59.1,30.01,North,5,0.0,0.0,91,0.00,,,0.00,Wunderground v.1.15,2013-06-15 05:51:00,
2013-06-15 02:01:00,61.7,59.0,30.01,North,5,0.0,0.0,91,0.00,,,0.00,Wunderground v.1.15,2013-06-15 06:01:00,
2013-06-15 02:11:00,61.2,59.2,30.01,North,5,0.0,0.0,93,0.00,,,0.00,Wunderground v.1.15,2013-06-15 06:11:00,
2013-06-15 02:21:00,61.5,59.2,30.01,North,5,0.0,0.0,92,0.00,,,0.00,Wunderground v.1.15,2013-06-15 06:21:00,
2013-06-15 02:31:00,61.8,58.8,30.01,North,5,0.0,0.0,90,0.00,,,0.00,Wunderground v.1.15,2013-06-15 06:31:00,
2013-06-15 02:41:00,61.0,59.0,30.01,North,5,0.0,0.0,93,0.00,,,0.00,Wunderground v.1.15,2013-06-15 06:41:00,
2013-06-15 02:51:00,61.3,58.7,30.01,North,5,0.0,0.0,91,0.00,,,0.00,Wunderground v.1.15,2013-06-15 06:51:00,
2013-06-15 03:01:00,60.9,58.6,30.01,North,5,0.0,0.0,92,0.00,,,0.00,Wunderground v.1.15,2013-06-15 07:01:00,
2013-06-15 03:11:00,61.1,58.5,30.01,North,5,0.0,0.0,91,0.00,,,0.00,Wunderground v.1.15,2013-06-15 07:11:00,
2013-06-15 03:21:00,61.1,58.1,30.01,North,5,0.0,0.0,90,0.00,,,0.00,Wunderground v.1.15,2013-06-15 07:21:00,
2013-06-15 03:31:00,61.1,58.5,30.01,North,5,0.0,0.0,91,0.00,,,0.00,Wunderground v.1.15,2013-06-15 07:31:00,
2013-06-15 03:41:00,60.8,58.5,30.00,North,5,0.0,0.0,92,0.00,,,0.00,Wunderground v.1.15,2013-06-15 07:41:00,
2013-06-15 03:51:00,60.2,58.2,30.00,North,5,0.0,0.0,93,0.00,,,0.00,Wunderground v.1.15,2013-06-15 07:51:00,
2013-06-15 04:01:00,60.3,58.6,30.00,North,5,0.0,0.0,94,0.00,,,0.00,Wunderground v.1.15,2013-06-15 08:01:00,
2013-06-15 04:11:00,60.1,57.8,30.00,North,5,0.0,0.0,92,0.00,,,0.00,Wunderground v.1.15,2013-06-15 08:11:00,
2013-06-15 04:21:00,60.1,58.1,30.00,North,5,0.0,0.0,93,0.00,,,0.00,Wunderground v.1.15,2013-06-15 08:21:00,
2013-06-15 04:31:00,60.1,57.8,30.00,North,5,0.0,0.0,92,0.00,,,0.00,Wunderground v.1.15,2013-06-15 08:31:00,
2013-06-15 04:41:00,60.0,58.0,30.00,North,5,0.0,0.0,93,0.00,,,0.00,Wunderground v.1.15,2013-06-15 08:41:00,
2013-06-15 04:51:00,59.9,57.9,30.00,North,5,0.0,0.0,93,0.00,,,0.00,Wunderground v.1.15,2013-06-15 08:51:00,
2013-06-15 05:01:00,59.6,57.6,30.00,North,5,0.0,0.0,93,0.00,,,0.00,Wunderground v.1.15,2013-06-15 09:01:00,
2013-06-15 05:11:00,59.6,57.6,30.01,North,5,0.0,0.0,93,0.00,,,0.00,Wunderground v.1.15,2013-06-15 09:11:00,
2013-06-15 05:21:00,59.4,57.1,30.02,North,5,0.0,0.0,92,0.00,,,0.00,Wunderground v.1.15,2013-06-15 09:21:00,
2013-06-15 05:31:00,59.2,57.2,30.02,North,5,0.0,0.0,93,0.00,,,0.00,Wunderground v.1.15,2013-06-15 09:31:00,
2013-06-15 05:41:00,59.1,57.1,30.02,North,5,0.0,0.0,93,0.00,,,0.00,Wunderground v.1.15,2013-06-15 09:41:00,
2013-06-15 05:51:00,59.0,57.0,30.03,North,5,0.0,0.0,93,0.00,,,0.00,Wunderground v.1.15,2013-06-15 09:51:00,
2013-06-15 06:01:00,58.9,56.9,30.04,North,5,0.0,0.0,93,0.00,,,0.00,Wunderground v.1.15,2013-06-15 10:01:00,
2013-06-15 06:11:00,58.6,56.6,30.05,North,5,0.0,0.0,93,0.00,,,0.00,Wunderground v.1.15,2013-06-15 10:11:00,
2013-06-15 06:21:00,57.9,56.2,30.06,North,5,0.0,0.0,94,0.00,,,0.00,Wunderground v.1.15,2013-06-15 10:21:00,
2013-06-15 06:31:00,58.0,56.3,30.05,North,355,0.0,0.0,94,0.00,,,0.00,Wunderground v.1.15,2013-06-15 10:31:00,
2013-06-15 06:41:00,58.1,56.7,30.06,East,92,0.0,0.0,95,0.00,,,0.00,Wunderground v.1.15,2013-06-15 10:41:00,
2013-06-15 06:51:00,58.8,57.4,30.06,East,92,0.0,0.0,95,0.00,,,0.00,Wunderground v.1.15,2013-06-15 10:51:00,
2013-06-15 07:01:00,59.9,58.5,30.07,East,92,0.0,0.0,95,0.00,,,0.00,Wunderground v.1.15,2013-06-15 11:01:00,
2013-06-15 07:11:00,60.5,59.1,30.06,East,92,0.0,0.0,95,0.00,,,0.00,Wunderground v.1.15,2013-06-15 11:11:00,
2013-06-15 07:21:00,61.2,59.8,30.07,WSW,246,0.0,0.0,95,0.00,,,0.00,Wunderground v.1.15,2013-06-15 11:21:00,
2013-06-15 07:31:00,62.7,60.9,30.07,WSW,246,0.0,0.0,94,0.00,,,0.00,Wunderground v.1.15,2013-06-15 11:31:00,
2013-06-15 07:41:00,63.9,60.6,30.07,WSW,246,0.0,0.0,89,0.00,,,0.00,Wunderground v.1.15,2013-06-15 11:41:00,
2013-06-15 07:51:00,64.8,59.5,30.08,WSW,246,0.0,0.0,83,0.00,,,0.00,Wunderground v.1.15,2013-06-15 11:51:00,
2013-06-15 08:01:00,65.8,61.2,30.08,WSW,246,0.0,0.0,85,0.00,,,0.00,Wunderground v.1.15,2013-06-15 12:01:00,
2013-06-15 08:11:00,66.9,61.2,30.08,WSW,246,0.0,0.0,82,0.00,,,0.00,Wunderground v.1.15,2013-06-15 12:11:00,
2013-06-15 08:21:00,68.1,61.0,30.08,North,5,0.0,0.0,78,0.00,,,0.00,Wunderground v.1.15,2013-06-15 12:21:00,
2013-06-15 08:31:00,68.8,60.9,30.08,NNE,17,0.0,0.0,76,0.00,,,0.00,Wunderground v.1.15,2013-06-15 12:31:00,
2013-06-15 08:41:00,69.4,60.8,30.09,NNE,28,0.0,0.0,74,0.00,,,0.00,Wunderground v.1.15,2013-06-15 12:41:00,
2013-06-15 08:51:00,70.0,61.7,30.09,North,360,0.0,0.0,75,0.00,,,0.00,Wunderground v.1.15,2013-06-15 12:51:00,
2013-06-15 09:01:00,70.9,61.8,30.09,NNE,22,0.0,0.0,73,0.00,,,0.00,Wunderground v.1.15,2013-06-15 13:01:00,
2013-06-15 09:11:00,71.5,61.6,30.09,NNE,25,0.0,0.0,71,0.00,,,0.00,Wunderground v.1.15,2013-06-15 13:11:00,
2013-06-15 09:21:00,72.3,62.0,30.10,North,5,0.0,0.0,70,0.00,,,0.00,Wunderground v.1.15,2013-06-15 13:21:00,
2013-06-15 09:31:00,73.0,61.0,30.10,WSW,238,0.0,0.0,66,0.00,,,0.00,Wunderground v.1.15,2013-06-15 13:31:00,
2013-06-15 09:41:00,74.1,61.6,30.10,East,86,0.0,0.0,65,0.00,,,0.00,Wunderground v.1.15,2013-06-15 13:41:00,
2013-06-15 09:51:00,74.2,63.4,30.10,ENE,77,0.0,0.0,69,0.00,,,0.00,Wunderground v.1.15,2013-06-15 13:51:00,
2013-06-15 10:01:00,74.4,61.0,30.10,SW,220,0.0,0.0,63,0.00,,,0.00,Wunderground v.1.15,2013-06-15 14:01:00,
2013-06-15 10:11:00,75.0,61.5,30.10,East,84,0.0,0.0,63,0.00,,,0.00,Wunderground v.1.15,2013-06-15 14:11:00,
2013-06-15 10:21:00,74.9,61.0,30.10,NNW,327,0.0,0.0,62,0.00,,,0.00,Wunderground v.1.15,2013-06-15 14:21:00,
2013-06-15 10:31:00,75.7,63.1,30.09,NNE,17,0.0,0.0,65,0.00,,,0.00,Wunderground v.1.15,2013-06-15 14:31:00,
2013-06-15 10:41:00,76.3,62.3,30.10,ESE,119,0.0,0.0,62,0.00,,,0.00,Wunderground v.1.15,2013-06-15 14:41:00,
2013-06-15 10:51:00,76.8,62.3,30.09,ESE,121,0.0,0.0,61,0.00,,,0.00,Wunderground v.1.15,2013-06-15 14:51:00,
2013-06-15 11:01:00,77.0,62.0,30.09,WSW,240,0.0,0.0,60,0.00,,,0.00,Wunderground v.1.15,2013-06-15 15:01:00,
2013-06-15 11:11:00,77.5,63.9,30.09,SSE,159,0.0,0.0,63,0.00,,,0.00,Wunderground v.1.15,2013-06-15 15:11:00,
2013-06-15 11:21:00,77.4,61.0,30.09,SSW,203,0.0,0.0,57,0.00,,,0.00,Wunderground v.1.15,2013-06-15 15:21:00,
2013-06-15 11:31:00,77.8,61.8,30.09,South,186,0.0,0.0,58,0.00,,,0.00,Wunderground v.1.15,2013-06-15 15:31:00,
2013-06-15 11:41:00,78.4,62.9,30.09,South,182,0.0,0.0,59,0.00,,,0.00,Wunderground v.1.15,2013-06-15 15:41:00,
2013-06-15 11:51:00,78.4,63.8,30.09,West,273,0.0,0.0,61,0.00,,,0.00,Wunderground v.1.15,2013-06-15 15:51:00,
2013-06-15 12:01:00,79.4,63.3,30.09,ESE,109,0.0,0.0,58,0.00,,,0.00,Wunderground v.1.15,2013-06-15 16:01:00,
2013-06-15 12:11:00,79.5,60.9,30.09,ENE,57,1.0,3.0,53,0.00,,,0.00,Wunderground v.1.15,2013-06-15 16:11:00,
2013-06-15 12:21:00,80.0,64.9,30.09,WSW,246,2.0,5.0,60,0.00,,,0.00,Wunderground v.1.15,2013-06-15 16:21:00,
2013-06-15 12:31:00,79.5,63.9,30.09,South,170,4.0,4.0,59,0.00,,,0.00,Wunderground v.1.15,2013-06-15 16:31:00,
2013-06-15 12:41:00,79.2,60.6,30.08,West,269,3.0,4.0,53,0.00,,,0.00,Wunderground v.1.15,2013-06-15 16:41:00,
2013-06-15 12:51:00,80.9,60.5,30.08,SSE,166,3.0,3.0,50,0.00,,,0.00,Wunderground v.1.15,2013-06-15 16:51:00,
2013-06-15 13:01:00,80.1,61.4,30.08,SSW,211,2.0,6.0,53,0.00,,,0.00,Wunderground v.1.15,2013-06-15 17:01:00,
2013-06-15 13:11:00,79.8,60.6,30.08,SSW,211,4.0,6.0,52,0.00,,,0.00,Wunderground v.1.15,2013-06-15 17:11:00,
2013-06-15 13:21:00,80.7,59.2,30.08,SSW,202,4.0,4.0,48,0.00,,,0.00,Wunderground v.1.15,2013-06-15 17:21:00,
2013-06-15 13:31:00,81.1,60.7,30.07,SSW,213,4.0,6.0,50,0.00,,,0.00,Wunderground v.1.15,2013-06-15 17:31:00,
2013-06-15 13:41:00,81.3,61.4,30.07,SE,130,3.0,5.0,51,0.00,,,0.00,Wunderground v.1.15,2013-06-15 17:41:00,
2013-06-15 13:51:00,81.1,62.3,30.07,West,261,4.0,4.0,53,0.00,,,0.00,Wunderground v.1.15,2013-06-15 17:51:00,
2013-06-15 14:01:00,80.5,61.3,30.06,West,271,2.0,5.0,52,0.00,,,0.00,Wunderground v.1.15,2013-06-15 18:01:00,
2013-06-15 14:11:00,81.8,61.9,30.07,West,259,4.0,4.0,51,0.00,,,0.00,Wunderground v.1.15,2013-06-15 18:11:00,
2013-06-15 14:21:00,82.6,64.3,30.07,SW,221,4.0,4.0,54,0.00,,,0.00,Wunderground v.1.15,2013-06-15 18:21:00,
2013-06-15 14:31:00,81.2,60.8,30.06,SSW,200,3.0,3.0,50,0.00,,,0.00,Wunderground v.1.15,2013-06-15 18:31:00,
2013-06-15 14:41:00,81.4,62.1,30.06,SSE,159,4.0,5.0,52,0.00,,,0.00,Wunderground v.1.15,2013-06-15 18:41:00,
2013-06-15 14:51:00,81.9,63.1,30.06,SE,137,4.0,4.0,53,0.00,,,0.00,Wunderground v.1.15,2013-06-15 18:51:00,
2013-06-15 15:01:00,82.5,60.8,30.06,SW,225,4.0,4.0,48,0.00,,,0.00,Wunderground v.1.15,2013-06-15 19:01:00,
2013-06-15 15:11:00,80.5,61.3,30.06,SE,144,2.0,3.0,52,0.00,,,0.00,Wunderground v.1.15,2013-06-15 19:11:00,
2013-06-15 15:21:00,82.2,62.8,30.05,South,178,5.0,5.0,52,0.00,,,0.00,Wunderground v.1.15,2013-06-15 19:21:00,
2013-06-15 15:31:00,82.3,60.1,30.05,SW,221,5.0,7.0,47,0.00,,,0.00,Wunderground v.1.15,2013-06-15 19:31:00,
2013-06-15 15:41:00,80.7,59.2,30.06,WSW,252,3.0,3.0,48,0.00,,,0.00,Wunderground v.1.15,2013-06-15 19:41:00,
2013-06-15 15:51:00,80.5,61.8,30.05,SSE,160,2.0,2.0,53,0.00,,,0.00,Wunderground v.1.15,2013-06-15 19:51:00,
2013-06-15 16:01:00,82.5,61.4,30.05,SE,136,2.0,2.0,49,0.00,,,0.00,Wunderground v.1.15,2013-06-15 20:01:00,
2013-06-15 16:11:00,82.2,61.7,30.05,ESE,115,3.0,3.0,50,0.00,,,0.00,Wunderground v.1.15,2013-06-15 20:11:00,
2013-06-15 16:21:00,82.6,60.3,30.04,NNW,344,2.0,2.0,47,0.00,,,0.00,Wunderground v.1.15,2013-06-15 20:21:00,
2013-06-15 16:31:00,82.9,61.2,30.04,SSW,200,3.0,6.0,48,0.00,,,0.00,Wunderground v.1.15,2013-06-15 20:31:00,
2013-06-15 16:41:00,82.6,60.3,30.04,WSW,238,2.0,2.0,47,0.00,,,0.00,Wunderground v.1.15,2013-06-15 20:41:00,
2013-06-15 16:51:00,82.9,63.5,30.04,SW,223,3.0,3.0,52,0.00,,,0.00,Wunderground v.1.15,2013-06-15 20:51:00,
2013-06-15 17:01:00,82.8,61.1,30.04,South,185,3.0,5.0,48,0.00,,,0.00,Wunderground v.1.15,2013-06-15 21:01:00,
2013-06-15 17:11:00,81.8,60.8,30.04,South,188,3.0,3.0,49,0.00,,,0.00,Wunderground v.1.15,2013-06-15 21:11:00,
2013-06-15 17:21:00,80.9,62.7,30.04,SE,138,2.0,2.0,54,0.00,,,0.00,Wunderground v.1.15,2013-06-15 21:21:00,
2013-06-15 17:31:00,82.0,62.1,30.04,SE,129,3.0,3.0,51,0.00,,,0.00,Wunderground v.1.15,2013-06-15 21:31:00,
2013-06-15 17:41:00,82.6,62.6,30.04,SSE,157,3.0,3.0,51,0.00,,,0.00,Wunderground v.1.15,2013-06-15 21:41:00,
2013-06-15 17:51:00,82.1,61.0,30.03,SSW,207,4.0,4.0,49,0.00,,,0.00,Wunderground v.1.15,2013-06-15 21:51:00,
2013-06-15 18:01:00,82.2,60.6,30.02,SSE,164,4.0,4.0,48,0.00,,,0.00,Wunderground v.1.15,2013-06-15 22:01:00,
2013-06-15 18:11:00,82.0,61.5,30.02,SSE,160,3.0,4.0,50,0.00,,,0.00,Wunderground v.1.15,2013-06-15 22:11:00,
2013-06-15 18:21:00,81.6,61.7,30.02,SSE,167,4.0,4.0,51,0.00,,,0.00,Wunderground v.1.15,2013-06-15 22:21:00,
2013-06-15 18:31:00,81.5,61.1,30.02,SSW,202,4.0,4.0,50,0.00,,,0.00,Wunderground v.1.15,2013-06-15 22:31:00,
2013-06-15 18:41:00,81.5,61.6,30.02,SSW,209,3.0,5.0,51,0.00,,,0.00,Wunderground v.1.15,2013-06-15 22:41:00,
2013-06-15 18:51:00,81.1,61.8,30.02,South,178,4.0,4.0,52,0.00,,,0.00,Wunderground v.1.15,2013-06-15 22:51:00,
2013-06-15 19:01:00,81.0,61.7,30.02,SSW,209,3.0,4.0,52,0.00,,,0.00,Wunderground v.1.15,2013-06-15 23:01:00,
2013-06-15 19:11:00,80.6,61.3,30.02,SSW,194,3.0,3.0,52,0.00,,,0.00,Wunderground v.1.15,2013-06-15 23:11:00,
2013-06-15 19:31:00,80.0,62.4,30.02,South,186,2.0,2.0,55,0.00,,,0.00,Wunderground v.1.15,2013-06-15 23:31:00,
2013-06-15 19:41:00,79.6,63.0,30.03,South,190,2.0,2.0,57,0.00,,,0.00,Wunderground v.1.15,2013-06-15 23:41:00,
2013-06-15 19:51:00,79.1,63.5,30.03,South,190,1.0,1.0,59,0.00,,,0.00,Wunderground v.1.15,2013-06-15 23:51:00,
2013-06-15 20:01:00,78.4,63.4,30.03,SSW,194,1.0,1.0,60,0.00,,,0.00,Wunderground v.1.15,2013-06-16 00:01:00,
2013-06-15 20:11:00,77.4,63.8,30.03,SSW,194,0.0,1.0,63,0.00,,,0.00,Wunderground v.1.15,2013-06-16 00:11:00,
2013-06-15 20:21:00,76.6,63.5,30.03,North,360,0.0,0.0,64,0.00,,,0.00,Wunderground v.1.15,2013-06-16 00:21:00,
2013-06-15 20:31:00,75.3,64.8,30.03,North,360,0.0,0.0,70,0.00,,,0.00,Wunderground v.1.15,2013-06-16 00:31:00,
2013-06-15 20:41:00,73.2,64.8,30.03,North,360,0.0,0.0,75,0.00,,,0.00,Wunderground v.1.15,2013-06-16 00:41:00,
2013-06-15 20:51:00,73.3,65.3,30.03,North,360,0.0,0.0,76,0.00,,,0.00,Wunderground v.1.15,2013-06-16 00:51:00,
2013-06-15 21:01:00,72.4,64.0,30.03,North,360,0.0,0.0,75,0.00,,,0.00,Wunderground v.1.15,2013-06-16 01:01:00,
2013-06-15 21:11:00,71.5,65.0,30.03,North,360,0.0,0.0,80,0.00,,,0.00,Wunderground v.1.15,2013-06-16 01:11:00,
2013-06-15 21:21:00,70.8,64.7,30.02,North,360,0.0,0.0,81,0.00,,,0.00,Wunderground v.1.15,2013-06-16 01:21:00,
2013-06-15 21:31:00,70.8,64.3,30.02,North,360,0.0,0.0,80,0.00,,,0.00,Wunderground v.1.15,2013-06-16 01:31:00,
2013-06-15 21:41:00,70.9,64.1,30.03,North,360,0.0,0.0,79,0.00,,,0.00,Wunderground v.1.15,2013-06-16 01:41:00,
2013-06-15 21:51:00,70.2,64.1,30.02,North,360,0.0,0.0,81,0.00,,,0.00,Wunderground v.1.15,2013-06-16 01:51:00,
2013-06-15 22:01:00,69.4,64.0,30.03,North,360,0.0,0.0,83,0.00,,,0.00,Wunderground v.1.15,2013-06-16 02:01:00,
2013-06-15 22:11:00,69.2,63.8,30.03,North,360,0.0,0.0,83,0.00,,,0.00,Wunderground v.1.15,2013-06-16 02:11:00,
2013-06-15 22:21:00,68.7,63.7,30.03,North,360,0.0,0.0,84,0.00,,,0.00,Wunderground v.1.15,2013-06-16 02:21:00,
2013-06-15 22:31:00,68.3,63.6,30.04,North,360,0.0,0.0,85,0.00,,,0.00,Wunderground v.1.15,2013-06-16 02:31:00,
2013-06-15 22:41:00,68.1,63.4,30.05,North,360,0.0,0.0,85,0.00,,,0.00,Wunderground v.1.15,2013-06-16 02:41:00,
2013-06-15 22:51:00,67.4,63.4,30.05,ESE,105,0.0,0.0,87,0.00,,,0.00,Wunderground v.1.15,2013-06-16 02:51:00,
2013-06-15 23:01:00,66.7,63.4,30.06,ESE,105,0.0,0.0,89,0.00,,,0.00,Wunderground v.1.15,2013-06-16 03:01:00,
2013-06-15 23:11:00,66.6,62.9,30.06,ESE,105,0.0,0.0,88,0.00,,,0.00,Wunderground v.1.15,2013-06-16 03:11:00,
2013-06-15 23:21:00,66.5,62.8,30.06,ESE,105,0.0,0.0,88,0.00,,,0.00,Wunderground v.1.15,2013-06-16 03:21:00,
2013-06-15 23:31:00,65.6,62.9,30.06,ESE,105,0.0,0.0,91,0.00,,,0.00,Wunderground v.1.15,2013-06-16 03:31:00,
2013-06-15 23:41:00,65.7,62.4,30.06,ESE,105,0.0,0.0,89,0.00,,,0.00,Wunderground v.1.15,2013-06-16 03:41:00,
2013-06-15 23:51:00,66.1,62.8,30.07,ESE,105,0.0,0.0,89,0.00,,,0.00,Wunderground v.1.15,2013-06-16 03:51:00,